Location: Buch
(50.1863°N, 11.0141°E)
Time: 20:02:45
(UTC+00:00)

Cosmos 158 Rocket - Pass Details

Date: 18 January 2020
Orbit: 698 x 794 km, 74.0° (Epoch: 16 February)

Event Time Altitude Azimuth Distance (km) Brightness Sun altitude
Rises 06:08:27 0° 192° (SSW) 3,069 7.3 -9.2°
Reaches altitude 10° 06:10:46 10° 189° (S) 2,155 6.5 -8.9°
Maximum altitude 06:15:33 62° 109° (ESE) 792 4.5 -8.2°
Drops below altitude 10° 06:20:24 10° 30° (NNE) 2,191 6.5 -7.5°
Sets 06:22:46 0° 27° (NNE) 3,125 7.2 -7.1°
